Location: Caltech
(34.1382°N, 118.1253°W)
Time: 22:50:14
(UTC-07:00)

Meteor 2-4 Rocket - Visible Passes

Search period start: 31 March 2015 00:00
Search period end: 10 April 2015 00:00
Orbit: 799 x 909 km, 81.2° (Epoch: 30 March)

Date Brightness Start Highest point End Pass type
(mag) Time Alt. Az. Time Alt. Az. Time Alt. Az.
31 Mar 5.5 03:25:04 25° ENE 03:25:04 25° ENE 03:28:23 10° NNE visible
31 Mar 4.6 05:07:10 27° WNW 05:07:10 27° WNW 05:11:19 10° NNW visible
01 Apr 5.7 03:14:31 22° ENE 03:14:31 22° ENE 03:17:19 10° NE visible
01 Apr 4.6 04:56:37 28° WNW 04:56:37 28° WNW 05:00:27 10° NNW visible
02 Apr 5.9 03:03:56 20° ENE 03:03:56 20° ENE 03:06:15 10° NE visible
02 Apr 4.7 04:46:02 28° NW 04:46:02 28° NW 04:49:35 10° NNW visible
03 Apr 6.1 02:53:19 17° NE 02:53:19 17° NE 02:55:11 10° NE visible
03 Apr 4.8 04:35:25 28° NW 04:35:25 28° NW 04:38:42 10° N visible
04 Apr 6.2 02:42:39 15° NE 02:42:39 15° NE 02:44:06 10° NE visible
04 Apr 4.9 04:24:45 28° NW 04:24:45 28° NW 04:27:49 10° N visible
05 Apr 6.3 02:31:59 14° NE 02:31:59 14° NE 02:33:00 10° NE visible
05 Apr 5.0 04:14:04 27° NNW 04:14:04 27° NNW 04:16:55 10° N visible
06 Apr 6.4 02:21:16 12° NE 02:21:16 12° NE 02:21:53 10° NE visible
06 Apr 5.1 04:03:21 26° NNW 04:03:21 26° NNW 04:06:01 10° N visible
07 Apr 6.5 02:10:32 11° NE 02:10:32 11° NE 02:10:45 10° NE visible
07 Apr 5.2 03:52:37 25° NNW 03:52:37 25° NNW 03:55:07 10° N visible
08 Apr 5.3 03:41:52 24° NNW 03:41:52 24° NNW 03:44:12 10° N visible
09 Apr 5.4 03:31:05 24° NNW 03:31:05 24° NNW 03:33:17 10° N visible
